Change the Weather History Date:

Friday, January 10, 2014

  Actual Average Record
Temperature  
Mean Temperature 37 °F -  
Max Temperature 39 °F 32 °F 42 °F (2015)
Min Temperature 35 °F 27 °F 10 °F (2000)
Degree Days  
Heating Degree Days 28    
Moisture  
Dew Point 35 °F    
Average Humidity 90    
Maximum Humidity 100    
Minimum Humidity 75    
Precipitation  
Precipitation 0.00 in - - ()
Sea Level Pressure  
Sea Level Pressure 29.39 in    
Wind  
Wind Speed 11 mph (South)    
Max Wind Speed 20 mph    
Max Gust Speed 21 mph    
Visibility 10 miles    
Events      
Averages and records for this station are not official NWS values.
T = Trace of Precipitation, MM = Missing Value Source: NWS Daily Summary

Daily Weather History Graph

Daily Weather History Graph

Search for Another Location

Airport or City:

Trip Planner

Search our weather history database for the weather conditions in past years. The results will help you decide how hot, cold, wet, or windy it might be!

Date:

Astronomy

Jan. 10, 2014 Rise Set
Actual Time 10:03 AM AKST 5:36 PM AKST
Civil Twilight 9:19 AM AKST 6:20 PM AKST
Nautical Twilight 8:32 AM AKST 7:07 PM AKST
Astronomical Twilight 7:48 AM AKST 7:51 PM AKST
Moon 2:01 PM AKST (1/10) 5:06 AM AKST (1/10)
Length of Visible Light 9h 00m
Length of Day
7h 32m
Waxing Gibbous, 76% of the Moon is Illuminated
Jan 10
Waxing Gibbous
Jan 15
Full
Jan 23
Last Quarter
Jan 30
New
Feb 6
First Quarter

Hourly Weather History & Observations

Time (AKST) Temp. Windchill Dew Point Humidity Pressure Visibility Wind Dir Wind Speed Gust Speed Precip Events Conditions
12:16 AM 37.4 °F 30.3 °F 30.2 °F 75% 29.49 in 10.0 mi South 10.4 mph - N/A   Mostly Cloudy
12:36 AM 37.4 °F 30.3 °F 32.0 °F 81% 29.49 in 10.0 mi South 10.4 mph - N/A   Mostly Cloudy
12:56 AM 37.4 °F 29.3 °F 32.0 °F 81% 29.49 in 10.0 mi South 12.7 mph - N/A   Scattered Clouds
1:16 AM 37.4 °F 31.4 °F 33.8 °F 87% 29.48 in 10.0 mi South 8.1 mph - N/A   Scattered Clouds
1:36 AM 37.4 °F 28.9 °F 32.0 °F 81% 29.48 in 10.0 mi South 13.8 mph - N/A   Partly Cloudy
1:56 AM 39.2 °F 30.5 °F 32.0 °F 75% 29.48 in 10.0 mi South 16.1 mph - N/A   Partly Cloudy
2:16 AM 39.2 °F 30.8 °F 33.8 °F 81% 29.47 in 10.0 mi South 15.0 mph - N/A   Mostly Cloudy
2:36 AM 39.2 °F 30.5 °F 33.8 °F 81% 29.46 in 10.0 mi South 16.1 mph - N/A   Mostly Cloudy
2:56 AM 39.2 °F 30.2 °F 33.8 °F 81% 29.46 in 9.0 mi South 17.3 mph 20.7 mph N/A   Overcast
3:16 AM 39.2 °F 29.6 °F 35.6 °F 87% 29.46 in 10.0 mi South 19.6 mph - N/A   Mostly Cloudy
3:36 AM 37.4 °F 28.5 °F 35.6 °F 93% 29.46 in 10.0 mi South 15.0 mph - N/A   Overcast
3:56 AM 37.4 °F 27.5 °F 35.6 °F 93% 29.46 in 10.0 mi South 18.4 mph - N/A   Overcast
4:16 AM 35.6 °F 29.2 °F 33.8 °F 93% 29.45 in 8.0 mi SSE 8.1 mph - N/A   Overcast
4:36 AM 35.6 °F 30.7 °F 35.6 °F 100% 29.45 in 8.0 mi SSE 5.8 mph - N/A   Overcast
4:56 AM 37.4 °F 29.3 °F 35.6 °F 93% 29.45 in 10.0 mi SSW 12.7 mph 17.3 mph N/A   Mostly Cloudy
5:16 AM 37.4 °F 28.9 °F 35.6 °F 93% 29.45 in 10.0 mi South 13.8 mph - N/A   Overcast
5:36 AM 37.4 °F 29.8 °F 35.6 °F 93% 29.44 in 10.0 mi South 11.5 mph - N/A   Overcast
5:56 AM 37.4 °F 30.3 °F 35.6 °F 93% 29.44 in 10.0 mi South 10.4 mph - N/A   Mostly Cloudy
6:16 AM 37.4 °F 31.4 °F 35.6 °F 93% 29.43 in 10.0 mi South 8.1 mph - N/A   Mostly Cloudy
6:36 AM 37.4 °F 32.8 °F 35.6 °F 93% 29.43 in 10.0 mi SSE 5.8 mph - N/A   Mostly Cloudy
6:56 AM 37.4 °F 33.8 °F 35.6 °F 93% 29.43 in 10.0 mi SSE 4.6 mph - N/A   Overcast
7:16 AM 37.4 °F 33.8 °F 35.6 °F 93% 29.43 in 10.0 mi SSE 4.6 mph - N/A   Overcast
7:36 AM 37.4 °F 31.4 °F 35.6 °F 93% 29.42 in 10.0 mi South 8.1 mph - N/A   Overcast
7:56 AM 37.4 °F 31.4 °F 35.6 °F 93% 29.43 in 10.0 mi South 8.1 mph - N/A   Overcast
8:16 AM 37.4 °F 32.1 °F 35.6 °F 93% 29.42 in 10.0 mi South 6.9 mph - N/A   Mostly Cloudy
8:36 AM 37.4 °F 29.3 °F 35.6 °F 93% 29.43 in 10.0 mi SSW 12.7 mph 16.1 mph N/A   Mostly Cloudy
8:56 AM 35.6 °F 29.9 °F 33.8 °F 93% 29.43 in 10.0 mi SSE 6.9 mph - N/A   Scattered Clouds
9:16 AM 35.6 °F 28.6 °F 33.8 °F 93% 29.44 in 10.0 mi South 9.2 mph - N/A   Scattered Clouds
9:36 AM 37.4 °F 28.9 °F 35.6 °F 93% 29.44 in 10.0 mi South 13.8 mph - N/A   Mostly Cloudy
9:56 AM 37.4 °F 29.3 °F 35.6 °F 93% 29.44 in 10.0 mi South 12.7 mph - N/A   Partly Cloudy
10:16 AM 37.4 °F 30.8 °F 35.6 °F 93% 29.44 in 10.0 mi South 9.2 mph - N/A   Scattered Clouds
10:36 AM 39.2 °F 32.0 °F 35.6 °F 87% 29.45 in 10.0 mi SSW 11.5 mph - N/A   Scattered Clouds
10:56 AM 35.6 °F 31.7 °F 33.8 °F 93% 29.46 in 7.0 mi SW 4.6 mph - N/A   Mostly Cloudy
11:16 AM 35.6 °F 31.7 °F 35.6 °F 100% 29.46 in 9.0 mi South 4.6 mph - N/A   Mostly Cloudy
11:36 AM 35.6 °F 31.7 °F 35.6 °F 100% 29.45 in 10.0 mi SSE 4.6 mph - N/A   Mostly Cloudy
11:56 AM 35.6 °F 29.9 °F 35.6 °F 100% 29.45 in 10.0 mi SSE 6.9 mph - N/A   Mostly Cloudy
12:16 PM 37.4 °F 31.4 °F 35.6 °F 93% 29.44 in 10.0 mi SSE 8.1 mph - N/A   Mostly Cloudy
12:36 PM 37.4 °F 31.4 °F 35.6 °F 93% 29.44 in 10.0 mi SSE 8.1 mph - N/A   Mostly Cloudy
12:56 PM 39.2 °F 32.0 °F 37.4 °F 93% 29.43 in 10.0 mi SSW 11.5 mph - N/A   Mostly Cloudy
1:16 PM 39.2 °F 33.0 °F 35.6 °F 87% 29.42 in 10.0 mi SSW 9.2 mph - N/A   Mostly Cloudy
1:36 PM 39.2 °F 33.0 °F 35.6 °F 87% 29.42 in 10.0 mi SSW 9.2 mph - N/A   Mostly Cloudy
1:56 PM 39.2 °F 33.0 °F 35.6 °F 87% 29.41 in 10.0 mi SW 9.2 mph - N/A   Mostly Cloudy
2:16 PM 39.2 °F 32.5 °F 35.6 °F 87% 29.41 in 10.0 mi SSW 10.4 mph - N/A   Mostly Cloudy
2:36 PM 37.4 °F 28.9 °F 35.6 °F 93% 29.40 in 10.0 mi South 13.8 mph - N/A   Mostly Cloudy
2:56 PM 37.4 °F 30.3 °F 35.6 °F 93% 29.40 in 10.0 mi South 10.4 mph - N/A   Mostly Cloudy
3:16 PM 39.2 °F 32.0 °F 35.6 °F 87% 29.39 in 10.0 mi South 11.5 mph - N/A   Mostly Cloudy
3:36 PM 39.2 °F 30.5 °F 35.6 °F 87% 29.39 in 10.0 mi South 16.1 mph - N/A   Mostly Cloudy
3:56 PM 37.4 °F 30.8 °F 35.6 °F 93% 29.38 in 10.0 mi SSE 9.2 mph - N/A   Mostly Cloudy
4:16 PM 39.2 °F 30.8 °F 35.6 °F 87% 29.37 in 10.0 mi South 15.0 mph - N/A   Mostly Cloudy
4:36 PM 37.4 °F 30.3 °F 33.8 °F 87% 29.37 in 10.0 mi SW 10.4 mph - N/A   Mostly Cloudy
4:56 PM 37.4 °F - 35.6 °F 93% 29.37 in 10.0 mi Calm Calm - N/A   Mostly Cloudy
5:16 PM 37.4 °F 29.8 °F 35.6 °F 93% 29.37 in 10.0 mi SSW 11.5 mph - N/A   Mostly Cloudy
5:36 PM 37.4 °F 31.4 °F 35.6 °F 93% 29.36 in 10.0 mi South 8.1 mph - N/A   Mostly Cloudy
5:56 PM 37.4 °F 28.2 °F 35.6 °F 93% 29.36 in 10.0 mi South 16.1 mph - N/A   Mostly Cloudy
6:16 PM 37.4 °F 30.3 °F 35.6 °F 93% 29.35 in 10.0 mi SSE 10.4 mph - N/A   Overcast
6:36 PM 37.4 °F 30.3 °F 33.8 °F 87% 29.34 in 10.0 mi SSE 10.4 mph - N/A   Overcast
6:56 PM 37.4 °F 28.9 °F 33.8 °F 87% 29.32 in 10.0 mi South 13.8 mph - N/A   Mostly Cloudy
7:16 PM 37.4 °F 27.8 °F 32.0 °F 81% 29.31 in 10.0 mi South 17.3 mph - N/A   Mostly Cloudy
7:36 PM 37.4 °F 28.5 °F 33.8 °F 87% 29.30 in 10.0 mi SSE 15.0 mph - N/A   Partly Cloudy
7:56 PM 39.2 °F 31.6 °F 33.8 °F 81% 29.30 in 10.0 mi SSE 12.7 mph 19.6 mph N/A   Mostly Cloudy
8:16 PM 39.2 °F 31.6 °F 33.8 °F 81% 29.30 in 10.0 mi SSE 12.7 mph - N/A   Overcast
8:36 PM 39.2 °F 33.6 °F 33.8 °F 81% 29.29 in 10.0 mi SSE 8.1 mph - N/A   Mostly Cloudy
8:56 PM 39.2 °F 32.5 °F 35.6 °F 87% 29.28 in 10.0 mi SSE 10.4 mph 19.6 mph N/A   Overcast
9:16 PM 37.4 °F 34.9 °F 33.8 °F 87% 29.27 in 10.0 mi SE 3.5 mph - N/A   Overcast
9:36 PM 37.4 °F 33.8 °F 33.8 °F 87% 29.25 in 10.0 mi SE 4.6 mph - N/A   Overcast
9:56 PM 37.4 °F - 33.8 °F 87% 29.23 in 10.0 mi Calm Calm - N/A   Mostly Cloudy
10:16 PM 37.4 °F 32.1 °F 33.8 °F 87% 29.23 in 10.0 mi SSE 6.9 mph - N/A   Overcast
10:36 PM 37.4 °F 34.9 °F 33.8 °F 87% 29.21 in 10.0 mi SE 3.5 mph - N/A   Overcast
10:56 PM 37.4 °F 30.8 °F 35.6 °F 93% 29.21 in 10.0 mi SE 9.2 mph - N/A   Overcast
11:16 PM 37.4 °F 31.4 °F 35.6 °F 93% 29.19 in 10.0 mi SSE 8.1 mph - N/A   Overcast
11:36 PM 37.4 °F 32.1 °F 35.6 °F 93% 29.17 in 5.0 mi SE 6.9 mph - N/A   Overcast
11:56 PM 37.4 °F 31.4 °F 35.6 °F 93% 29.16 in 5.0 mi SE 8.1 mph - N/A   Overcast